Change the Weather History Date:

Wednesday, August 28, 2013

  Actual Average Record
Temperature  
Mean Temperature 71 °F 68 °F  
Max Temperature 85 °F 84 °F 103 °F (2008)
Min Temperature 56 °F 51 °F 46 °F (2010)
Degree Days  
Heating Degree Days 0    
Month to date heating degree days 16  
Since 1 June heating degree days 74  
Since 1 July heating degree days 37  
Cooling Degree Days 6    
Month to date cooling degree days 87  
Year to date cooling degree days 319  
Since 1 June cooling degree days 264  
Growing Degree Days 20 (Base 50)    
Moisture  
Dew Point 57 °F    
Average Humidity 72    
Maximum Humidity 100    
Minimum Humidity 44    
Precipitation  
Precipitation 0.00 in 0.01 in 1.15 in (1954)
Month to date precipitation 0.02 0.06  
Year to date precipitation 6.55 22.16  
Since 1 July precipitation 0.03 0.07  
Sea Level Pressure  
Sea Level Pressure 29.86 in    
Wind  
Wind Speed 5 mph (SSE)    
Max Wind Speed 14 mph    
Max Gust Speed 18 mph    
Visibility 5 miles    
Events Fog    
T = Trace of Precipitation, MM = Missing Value Source: NWS Daily Summary

Daily Weather History Graph

Daily Weather History Graph

Search for Another Location

Airport or City:

Trip Planner

Search our weather history database for the weather conditions in past years. The results will help you decide how hot, cold, wet, or windy it might be!

Date:

Astronomy

Aug. 28, 2013 Rise Set
Actual Time 6:37 AM PDT 7:46 PM PDT
Civil Twilight 6:09 AM PDT 8:13 PM PDT
Nautical Twilight 5:37 AM PDT 8:46 PM PDT
Astronomical Twilight 5:03 AM PDT 9:20 PM PDT
Moon No Moon Rise 2:27 PM PDT (8/28)
Length of Visible Light 14h 03m
Length of Day
13h 09m
Last Quarter, 46% of the Moon is Illuminated
Aug 28
Last Quarter
Sep 5
New
Sep 12
First Quarter
Sep 19
Full
Sep 26
Last Quarter

Hourly Weather History & Observations

Time (PDT) Temp. Heat Index Dew Point Humidity Pressure Visibility Wind Dir Wind Speed Gust Speed Precip Events Conditions
12:53 AM 57.0 °F - 55.0 °F 93% 29.83 in 10.0 mi SE 3.5 mph - N/A   Clear
1:34 AM 57.2 °F - 55.4 °F 94% 29.85 in 10.0 mi South 4.6 mph - N/A   Scattered Clouds
1:40 AM 57.2 °F - 55.4 °F 94% 29.85 in 7.0 mi SSE 5.8 mph - N/A   Mostly Cloudy
1:49 AM 57.2 °F - 55.4 °F 94% 29.85 in 1.8 mi SSE 5.8 mph - N/A   Mostly Cloudy
1:53 AM 55.9 °F - 55.9 °F 100% 29.83 in 1.0 mi SSE 6.9 mph - N/A   Overcast
2:00 AM 55.4 °F - 55.4 °F 100% 29.85 in 0.5 mi SE 4.6 mph - N/A Fog Fog
2:23 AM 55.4 °F - 55.4 °F 100% 29.85 in 0.2 mi SSE 3.5 mph - N/A Fog Fog
2:38 AM 57.2 °F - 55.4 °F 94% 29.85 in 0.8 mi Calm Calm - N/A   Mist
2:53 AM 57.0 °F - 55.9 °F 96% 29.83 in 1.0 mi Calm Calm - N/A   Mist
3:28 AM 57.2 °F - 55.4 °F 94% 29.85 in 0.5 mi SE 3.5 mph - N/A Fog Fog
3:53 AM 57.0 °F - 55.9 °F 96% 29.83 in 0.2 mi Calm Calm - N/A Fog Fog
4:50 AM 55.4 °F - 55.4 °F 100% 29.85 in 0.5 mi Calm Calm - N/A Fog Fog
4:53 AM 55.9 °F - 55.9 °F 100% 29.83 in 0.5 mi Calm Calm - N/A Fog Fog
5:53 AM 55.9 °F - 55.9 °F 100% 29.83 in 0.5 mi Calm Calm - N/A Fog Fog
6:53 AM 55.9 °F - 55.9 °F 100% 29.85 in 0.2 mi Calm Calm - N/A Fog Fog
7:06 AM 55.4 °F - 55.4 °F 100% 29.88 in 0.2 mi Calm Calm - N/A Fog Fog
7:53 AM 55.9 °F - 55.9 °F 100% 29.88 in 1.0 mi Calm Calm - N/A   Overcast
8:53 AM 57.0 °F - 55.9 °F 96% 29.88 in 1.5 mi Calm Calm - N/A   Overcast
9:08 AM 57.2 °F - 55.4 °F 94% 29.91 in 1.5 mi Calm Calm - N/A   Overcast
9:30 AM 62.6 °F - 57.2 °F 82% 29.91 in 3.0 mi Calm Calm - N/A   Haze
9:53 AM 63.0 °F - 57.0 °F 81% 29.89 in 10.0 mi Calm Calm - N/A   Scattered Clouds
10:53 AM 70.0 °F - 57.9 °F 65% 29.90 in 10.0 mi Variable 3.5 mph - N/A   Clear
11:53 AM 75.9 °F - 57.9 °F 54% 29.89 in 10.0 mi South 5.8 mph - N/A   Clear
12:53 PM 82.9 °F 82.8 °F 59.0 °F 44% 29.87 in 10.0 mi South 8.1 mph - N/A   Clear
1:53 PM 84.0 °F 84.4 °F 61.0 °F 46% 29.86 in 10.0 mi SSE 8.1 mph 18.4 mph N/A   Partly Cloudy
3:53 PM 81.0 °F 81.7 °F 61.0 °F 50% 29.85 in 10.0 mi SSW 9.2 mph 16.1 mph N/A   Clear
4:53 PM 80.1 °F 81.1 °F 61.0 °F 52% 29.84 in 10.0 mi South 8.1 mph - N/A   Clear
5:53 PM 78.1 °F - 60.1 °F 54% 29.84 in 10.0 mi WSW 11.5 mph - N/A   Clear
6:53 PM 75.0 °F - 60.1 °F 60% 29.84 in 10.0 mi South 9.2 mph - N/A   Clear
7:53 PM 69.1 °F - 61.0 °F 75% 29.86 in 10.0 mi SE 9.2 mph - N/A   Clear
8:53 PM 64.0 °F - 60.1 °F 87% 29.88 in 10.0 mi SE 9.2 mph - N/A   Clear
9:53 PM 63.0 °F - 60.1 °F 90% 29.89 in 10.0 mi SE 6.9 mph - N/A   Clear
10:53 PM 62.1 °F - 60.1 °F 93% 29.90 in 10.0 mi SE 4.6 mph - N/A   Clear
11:53 PM 61.0 °F - 59.0 °F 93% 29.91 in 10.0 mi SE 4.6 mph - N/A   Clear